Silvestre De Sousa

Silvestre De Sousa

Statistiques 2026

  • Courses courues : 268
  • Nb de victoires : 30
  • Nb de places : 80
  • Écart gagnant : 15
  • Réussite à la gagne : 11%
  • Réussite à la place : 30%
Musique : 8p 8p 14p 10p 9p 18p 2p 16p 13p 9p 9p 7p 6p 4p 2p 1p 2p 9p
DateRangCatégorieAlloc.Dist.HippodromeChevalPoidsSpé.
13/06/25 4 Galop 17 857€ Gb-Sandown Charming Whisper 54,5 Plat
17/05/24 2 Galop 14 117€ Gb-Newbury French Duke 60,5 Plat
17/05/24 12 Galop 41 176€ Gb-Newbury Glam de Vega 60,5 Plat
19/07/25 8 Galop 51 724€ Gb-Newmarket Caspi Star 55 Plat
12/07/25 5 Galop 34 884€ Gb-Ascot Anashhad 60 Plat
19/04/25 1 Galop 45 977€ Gb-Musselburgh Caspi Star 58 Plat
28/03/25 2 Galop 8 690€ Gb-Southwell Caspi Star 55 Plat
21/09/24 6 Galop 23 810€ Gb-Newbury Shiplake 59 Plat
13/08/25 6 Galop 9 195€ Gb-Kempton Damascus Steel 65 Plat
13/08/25 2 Galop 13 793€ Gb-Kempton Al Khawssaa 60 Plat
12/08/25 3 Galop 28 736€ Gb-Lingfield Silent City 59 Plat
12/08/25 5 Galop 17 241€ Gb-Lingfield Star Marian 56 Plat
12/07/25 7 Galop 116 279€ Gb-Ascot Rhythm N Hooves 57,5 Plat
10/07/25 1 Galop 9 302€ Gb-Doncaster Khafiz 62 Plat
09/06/25 7 Galop 35 714€ Gb-Windsor Miraculous 53 Plat
07/05/25 10 Galop 35 294€ Gb-Chester Kinetic Force 60 Plat
02/05/25 3 Galop 47 059€ Gb-Goodwood Shagraan 61 Plat
17/05/24 14 Galop 14 117€ Gb-Newbury Khafiz 60,5 Plat
10/08/25 7 Galop 73 200€ Deauville Khafiz 57 Plat lire

Longtemps dernier, a conclu de belle façon.

29/05/25 7 Galop 47 619€ Gb-Sandown Alkuwarrior 58 Plat
29/04/25 4 Galop 8 372€ Gb-Wolverhampton Model Yuko 57,5 Plat
27/06/25 4 Galop 75 581€ Gb-Newcastle Imperial Quarter 60 Plat
29/05/25 11 Galop 17 857€ Gb-Sandown Sierra Blanca 60 Plat
01/08/25 4 Galop 57 471€ Gb-Goodwood Ride The Thunder 59 Plat
01/08/25 15 Galop 172 414€ Gb-Goodwood Fantastic Fox 59 Plat
01/08/25 10 Galop 86 207€ Gb-Goodwood Zinc White 53 Plat
31/07/25 13 Galop 57 471€ Gb-Goodwood Star Chorus 53 Plat
31/07/25 4 Galop 229 885€ Gb-Goodwood Rahiebb 59 Plat
31/07/25 17 Galop 114 943€ Gb-Goodwood Janey Mackers 56 Plat
30/07/25 3 Galop 86 207€ Gb-Goodwood Model Yuko 54 Plat
30/07/25 5 Galop 114 943€ Gb-Goodwood Jabaara 60 Plat
30/07/25 8 Galop 86 207€ Gb-Goodwood Sudu 58 Plat
29/07/25 1 Galop 57 471€ Gb-Goodwood Protest 61 Plat
29/07/25 4 Galop 68 966€ Gb-Goodwood Anashhad 58 Plat
29/07/25 16 Galop 86 207€ Gb-Goodwood Twilight Jet 61 Plat
29/07/25 3 Galop 114 943€ Gb-Goodwood Defiance 58 Plat
26/07/25 2 Galop 68 966€ Gb-Ascot Rhythm N Hooves 56 Plat
23/11/24 7 Galop 17 054€ Uae-Abu Dhabi Shepperton Lodge 57 Plat
18/06/25 3 Galop 311 765€ Gb-Ascot Rahiebb 58 Plat
18/06/25 21 Galop 176 471€ Gb-Ascot Social Exclusion 58 Plat
17/06/25 9 Galop 142 857€ Gb-Ascot Checkandchallenge 60 Plat
17/06/25 3 Galop 944 792€ Gb-Ascot Cairo 58 Plat
11/06/25 1 Galop 10 714€ GB-YARMOUTH Desert Charm 56 Plat
11/06/25 4 Galop 12 857€ GB-YARMOUTH Man Of Desert 59 Plat
11/06/25 10 Galop 9 524€ GB-YARMOUTH Margaret Tudor 58 Plat
11/06/25 7 Galop 8 571€ GB-YARMOUTH Makes Me Wonder 60 Plat
06/06/25 1 Galop 89 286€ Gb-Epsom Partisan Hero 55,5 Plat
06/06/25 4 Galop 119 048€ Gb-Epsom Defiance 58,5 Plat
06/06/25 0 Galop 89 286€ Gb-Epsom Alfa Duplicate 56 Plat
03/06/25 0 Galop 8 333€ Gb-Leicester Style King 59 Plat